Time,TemperatureF,DewpointF,PressureIn,WindDirection,WindDirectionDegrees,WindSpeedMPH,WindSpeedGustMPH,Humidity,HourlyPrecipIn,Conditions,Clouds,dailyrainin,SoftwareType,DateUTC
2013-09-05 00:01:00,62.4,57.9,29.86,NNW,334,2.0,2.0,85,0.00,,,0.00,meteohub,2013-09-05 04:01:00,
2013-09-05 00:02:00,62.4,57.9,29.86,NNW,334,1.0,2.0,85,0.00,,,0.00,meteohub,2013-09-05 04:02:00,
2013-09-05 00:07:00,62.4,57.9,29.86,NNW,334,0.0,2.0,85,0.00,,,0.00,meteohub,2013-09-05 04:07:00,
2013-09-05 00:12:00,62.4,57.9,29.86,NNW,334,0.0,2.0,85,0.00,,,0.00,meteohub,2013-09-05 04:12:00,
2013-09-05 00:17:00,62.4,57.9,29.86,NNW,334,0.0,2.0,85,0.00,,,0.00,meteohub,2013-09-05 04:17:00,
2013-09-05 00:22:00,62.4,57.9,29.85,NNW,334,0.0,2.0,85,0.00,,,0.00,meteohub,2013-09-05 04:22:00,
2013-09-05 00:27:00,62.4,58.5,29.85,NNW,334,0.0,2.0,87,0.00,,,0.00,meteohub,2013-09-05 04:27:00,
2013-09-05 00:32:00,62.4,58.1,29.85,NNW,334,1.0,2.0,86,0.00,,,0.00,meteohub,2013-09-05 04:32:00,
2013-09-05 00:37:00,62.4,58.5,29.85,NNW,334,2.0,2.0,87,0.00,,,0.00,meteohub,2013-09-05 04:37:00,
2013-09-05 00:42:00,62.4,58.1,29.85,NNW,334,0.0,3.0,86,0.00,,,0.00,meteohub,2013-09-05 04:42:00,
2013-09-05 00:47:00,62.4,58.5,29.85,NNW,334,0.0,3.0,87,0.00,,,0.00,meteohub,2013-09-05 04:47:00,
2013-09-05 00:52:00,62.2,58.3,29.85,NNW,334,2.0,3.0,87,0.00,,,0.00,meteohub,2013-09-05 04:52:00,
2013-09-05 00:57:00,62.1,58.1,29.86,NW,325,2.0,3.0,87,0.00,,,0.00,meteohub,2013-09-05 04:57:00,
2013-09-05 01:02:00,62.1,58.8,29.86,NW,318,3.0,3.0,89,0.00,,,0.00,meteohub,2013-09-05 05:02:00,
2013-09-05 01:07:00,61.9,58.6,29.86,NNW,330,2.0,4.0,89,0.00,,,0.00,meteohub,2013-09-05 05:07:00,
2013-09-05 01:12:00,61.9,59.0,29.86,NNW,330,2.0,4.0,90,0.00,,,0.00,meteohub,2013-09-05 05:12:00,
2013-09-05 01:17:00,61.7,58.8,29.86,NNW,347,2.0,4.0,90,0.00,,,0.00,meteohub,2013-09-05 05:17:00,
2013-09-05 01:22:00,61.3,58.5,29.86,NNW,338,3.0,5.0,90,0.00,,,0.00,meteohub,2013-09-05 05:22:00,
2013-09-05 01:27:00,61.0,58.1,29.86,NNW,338,1.0,5.0,90,0.00,,,0.00,meteohub,2013-09-05 05:27:00,
2013-09-05 01:32:00,60.6,58.3,29.86,North,352,0.0,5.0,92,0.02,,,0.02,meteohub,2013-09-05 05:32:00,
2013-09-05 01:37:00,60.6,57.9,29.85,North,352,0.0,3.0,91,0.03,,,0.03,meteohub,2013-09-05 05:37:00,
2013-09-05 01:42:00,60.4,57.7,29.86,North,352,0.0,3.0,91,0.05,,,0.05,meteohub,2013-09-05 05:42:00,
2013-09-05 01:47:00,60.3,57.9,29.86,North,352,0.0,2.0,92,0.06,,,0.06,meteohub,2013-09-05 05:47:00,
2013-09-05 01:52:00,60.3,58.3,29.86,ENE,72,0.0,1.0,93,0.07,,,0.07,meteohub,2013-09-05 05:52:00,
2013-09-05 01:57:00,60.3,58.5,29.86,ENE,72,0.0,2.0,94,0.11,,,0.11,meteohub,2013-09-05 05:57:00,
2013-09-05 02:02:00,60.3,58.5,29.86,ENE,72,0.0,2.0,94,0.12,,,0.12,meteohub,2013-09-05 06:02:00,
2013-09-05 02:07:00,60.1,58.3,29.86,ENE,72,0.0,0.0,94,0.15,,,0.15,meteohub,2013-09-05 06:07:00,
2013-09-05 02:12:00,60.1,58.3,29.86,ENE,72,0.0,0.0,94,0.16,,,0.16,meteohub,2013-09-05 06:12:00,
2013-09-05 02:17:00,60.1,58.3,29.86,East,88,0.0,0.0,94,0.18,,,0.18,meteohub,2013-09-05 06:17:00,
2013-09-05 02:22:00,60.1,58.6,29.86,NNW,343,2.0,2.0,95,0.18,,,0.18,meteohub,2013-09-05 06:22:00,
2013-09-05 02:27:00,60.3,58.8,29.86,NW,315,3.0,3.0,95,0.16,,,0.18,meteohub,2013-09-05 06:27:00,
2013-09-05 02:32:00,60.6,59.5,29.86,WNW,303,4.0,4.0,96,0.16,,,0.18,meteohub,2013-09-05 06:32:00,
2013-09-05 02:37:00,60.6,59.2,29.85,NNW,338,0.0,7.0,95,0.17,,,0.21,meteohub,2013-09-05 06:37:00,
2013-09-05 02:42:00,60.4,59.0,29.84,West,273,2.0,7.0,95,0.16,,,0.22,meteohub,2013-09-05 06:42:00,
2013-09-05 02:47:00,60.3,58.8,29.84,NW,315,1.0,7.0,95,0.16,,,0.22,meteohub,2013-09-05 06:47:00,
2013-09-05 02:52:00,60.1,58.6,29.84,NW,315,0.0,3.0,95,0.12,,,0.22,meteohub,2013-09-05 06:52:00,
2013-09-05 02:57:00,60.1,58.6,29.84,NW,315,0.0,3.0,95,0.10,,,0.22,meteohub,2013-09-05 06:57:00,
2013-09-05 03:02:00,60.1,58.6,29.85,NW,315,0.0,2.0,95,0.08,,,0.22,meteohub,2013-09-05 07:02:00,
2013-09-05 03:07:00,59.9,58.5,29.84,NW,315,0.0,0.0,95,0.06,,,0.22,meteohub,2013-09-05 07:07:00,
2013-09-05 03:12:00,59.9,58.8,29.83,NW,315,0.0,0.0,96,0.05,,,0.22,meteohub,2013-09-05 07:12:00,
2013-09-05 03:17:00,60.1,59.0,29.84,NW,315,0.0,0.0,96,0.04,,,0.22,meteohub,2013-09-05 07:17:00,
2013-09-05 03:22:00,60.1,59.0,29.84,NW,315,1.0,2.0,96,0.04,,,0.22,meteohub,2013-09-05 07:22:00,
2013-09-05 03:27:00,60.1,59.0,29.84,NW,315,0.0,3.0,96,0.04,,,0.22,meteohub,2013-09-05 07:27:00,
2013-09-05 03:32:00,60.1,59.0,29.84,NW,315,0.0,3.0,96,0.04,,,0.22,meteohub,2013-09-05 07:32:00,
2013-09-05 03:37:00,60.1,59.0,29.84,North,355,1.0,3.0,96,0.01,,,0.22,meteohub,2013-09-05 07:37:00,
2013-09-05 03:42:00,60.1,59.0,29.85,North,354,0.0,3.0,96,0.00,,,0.22,meteohub,2013-09-05 07:42:00,
2013-09-05 03:47:00,60.1,59.0,29.85,North,355,0.0,3.0,96,0.00,,,0.22,meteohub,2013-09-05 07:47:00,
2013-09-05 03:52:00,60.1,59.0,29.85,North,354,0.0,2.0,96,0.00,,,0.22,meteohub,2013-09-05 07:52:00,
2013-09-05 03:57:00,60.1,59.0,29.85,North,355,0.0,1.0,96,0.00,,,0.22,meteohub,2013-09-05 07:57:00,
2013-09-05 04:02:00,60.3,59.4,29.85,North,353,0.0,1.0,97,0.00,,,0.22,meteohub,2013-09-05 08:02:00,
2013-09-05 04:07:00,60.3,59.2,29.85,North,353,0.0,3.0,96,0.00,,,0.22,meteohub,2013-09-05 08:07:00,
2013-09-05 04:12:00,60.3,59.2,29.85,North,353,0.0,3.0,96,0.00,,,0.22,meteohub,2013-09-05 08:12:00,
2013-09-05 04:17:00,60.3,59.2,29.84,North,353,0.0,2.0,96,0.00,,,0.22,meteohub,2013-09-05 08:17:00,
2013-09-05 04:22:00,60.3,59.2,29.85,NNW,338,2.0,0.0,96,0.00,,,0.22,meteohub,2013-09-05 08:22:00,
2013-09-05 04:27:00,60.1,59.0,29.85,NNW,332,1.0,3.0,96,0.00,,,0.22,meteohub,2013-09-05 08:27:00,
2013-09-05 04:32:00,60.1,59.0,29.85,NNW,332,0.0,3.0,96,0.00,,,0.22,meteohub,2013-09-05 08:32:00,
2013-09-05 04:37:00,60.1,59.0,29.85,NNW,332,0.0,3.0,96,0.00,,,0.22,meteohub,2013-09-05 08:37:00,
2013-09-05 04:42:00,60.1,59.0,29.85,NNW,332,0.0,1.0,96,0.00,,,0.22,meteohub,2013-09-05 08:42:00,
2013-09-05 04:47:00,60.1,59.0,29.85,NNW,332,0.0,0.0,96,0.00,,,0.22,meteohub,2013-09-05 08:47:00,
2013-09-05 04:52:00,60.3,59.4,29.85,NNW,332,0.0,0.0,97,0.00,,,0.22,meteohub,2013-09-05 08:52:00,
2013-09-05 04:57:00,60.3,59.2,29.86,NNW,332,0.0,0.0,96,0.00,,,0.22,meteohub,2013-09-05 08:57:00,
2013-09-05 05:02:00,60.1,59.0,29.86,NNW,332,0.0,1.0,96,0.00,,,0.22,meteohub,2013-09-05 09:02:00,
2013-09-05 05:07:00,60.1,59.0,29.86,NNW,332,0.0,1.0,96,0.00,,,0.22,meteohub,2013-09-05 09:07:00,
2013-09-05 05:12:00,60.1,59.0,29.86,NNW,332,0.0,1.0,96,0.00,,,0.22,meteohub,2013-09-05 09:12:00,
2013-09-05 05:17:00,59.9,58.8,29.85,NNW,332,0.0,1.0,96,0.00,,,0.22,meteohub,2013-09-05 09:17:00,
2013-09-05 05:22:00,59.9,58.8,29.86,NNW,332,0.0,1.0,96,0.00,,,0.22,meteohub,2013-09-05 09:22:00,
2013-09-05 05:27:00,59.7,58.6,29.86,NNW,336,0.0,2.0,96,0.00,,,0.22,meteohub,2013-09-05 09:27:00,
2013-09-05 05:32:00,60.1,59.2,29.86,NNW,335,0.0,2.0,97,0.00,,,0.22,meteohub,2013-09-05 09:32:00,
2013-09-05 05:36:00,60.3,59.2,29.86,NNW,335,0.0,2.0,96,0.00,,,0.22,meteohub,2013-09-05 09:36:00,
2013-09-05 05:41:00,60.3,59.2,29.86,NNW,335,0.0,2.0,96,0.00,,,0.22,meteohub,2013-09-05 09:41:00,
2013-09-05 05:46:00,60.3,59.4,29.86,NNW,338,2.0,2.0,97,0.00,,,0.22,meteohub,2013-09-05 09:46:00,
2013-09-05 05:51:00,60.3,59.2,29.87,NNW,345,4.0,5.0,96,0.00,,,0.22,meteohub,2013-09-05 09:51:00,
2013-09-05 05:56:00,60.3,58.8,29.87,NNW,332,2.0,5.0,95,0.00,,,0.22,meteohub,2013-09-05 09:56:00,
2013-09-05 06:01:00,60.3,58.3,29.88,NNW,346,0.0,5.0,93,0.00,,,0.22,meteohub,2013-09-05 10:01:00,
2013-09-05 06:06:00,60.3,58.3,29.88,NNW,336,2.0,5.0,93,0.01,,,0.23,meteohub,2013-09-05 10:06:00,
2013-09-05 06:11:00,60.3,58.8,29.88,NNW,336,0.0,3.0,95,0.01,,,0.23,meteohub,2013-09-05 10:11:00,
2013-09-05 06:16:00,60.3,58.5,29.88,NNW,336,0.0,3.0,94,0.01,,,0.23,meteohub,2013-09-05 10:16:00,
2013-09-05 06:21:00,60.1,58.3,29.89,NNW,340,3.0,3.0,94,0.01,,,0.23,meteohub,2013-09-05 10:21:00,
2013-09-05 06:26:00,60.1,58.3,29.89,WNW,299,3.0,4.0,94,0.01,,,0.23,meteohub,2013-09-05 10:26:00,
2013-09-05 06:31:00,59.7,57.4,29.90,NNW,333,2.0,5.0,92,0.01,,,0.23,meteohub,2013-09-05 10:31:00,
2013-09-05 06:36:00,59.4,57.0,29.90,NNW,328,1.0,5.0,92,0.01,,,0.23,meteohub,2013-09-05 10:36:00,
2013-09-05 06:41:00,59.4,57.0,29.90,WNW,296,5.0,5.0,92,0.01,,,0.23,meteohub,2013-09-05 10:41:00,
2013-09-05 06:46:00,59.0,56.7,29.91,NW,324,3.0,5.0,92,0.01,,,0.23,meteohub,2013-09-05 10:46:00,
2013-09-05 06:51:00,58.8,56.5,29.91,NNW,336,1.0,6.0,92,0.01,,,0.23,meteohub,2013-09-05 10:51:00,
2013-09-05 06:56:00,58.6,56.3,29.92,NNW,334,4.0,6.0,92,0.01,,,0.23,meteohub,2013-09-05 10:56:00,
2013-09-05 07:01:00,58.8,56.8,29.92,NW,311,2.0,6.0,93,0.01,,,0.23,meteohub,2013-09-05 11:01:00,
2013-09-05 07:06:00,58.8,56.5,29.92,NNW,345,3.0,6.0,92,0.00,,,0.23,meteohub,2013-09-05 11:06:00,
2013-09-05 07:11:00,58.6,56.3,29.92,NW,315,3.0,6.0,92,0.00,,,0.23,meteohub,2013-09-05 11:11:00,
2013-09-05 07:16:00,58.5,56.1,29.93,NNW,330,2.0,5.0,92,0.00,,,0.23,meteohub,2013-09-05 11:16:00,
2013-09-05 07:21:00,58.5,55.8,29.93,NNW,340,3.0,5.0,91,0.00,,,0.23,meteohub,2013-09-05 11:21:00,
2013-09-05 07:26:00,58.3,55.6,29.93,NNW,329,2.0,5.0,91,0.00,,,0.23,meteohub,2013-09-05 11:26:00,
2013-09-05 07:31:00,58.3,55.6,29.94,NW,314,3.0,5.0,91,0.00,,,0.23,meteohub,2013-09-05 11:31:00,
2013-09-05 07:36:00,58.3,55.6,29.94,NNW,327,3.0,5.0,91,0.00,,,0.23,meteohub,2013-09-05 11:36:00,
2013-09-05 07:41:00,58.3,55.6,29.94,North,349,1.0,4.0,91,0.00,,,0.23,meteohub,2013-09-05 11:41:00,
2013-09-05 07:46:00,58.3,55.6,29.94,NNW,341,2.0,4.0,91,0.00,,,0.23,meteohub,2013-09-05 11:46:00,
2013-09-05 07:51:00,58.5,55.6,29.94,NW,316,2.0,4.0,90,0.00,,,0.23,meteohub,2013-09-05 11:51:00,
2013-09-05 07:56:00,58.5,55.8,29.94,NNW,338,4.0,5.0,91,0.00,,,0.23,meteohub,2013-09-05 11:56:00,
2013-09-05 08:01:00,58.5,54.9,29.95,NW,312,5.0,5.0,88,0.00,,,0.23,meteohub,2013-09-05 12:01:00,
2013-09-05 08:06:00,58.3,55.6,29.95,North,350,3.0,8.0,91,0.00,,,0.23,meteohub,2013-09-05 12:06:00,
2013-09-05 08:11:00,58.3,54.5,29.94,NNW,338,0.0,8.0,87,0.00,,,0.23,meteohub,2013-09-05 12:11:00,
2013-09-05 08:16:00,58.1,55.2,29.94,NNW,338,0.0,8.0,90,0.00,,,0.23,meteohub,2013-09-05 12:16:00,
2013-09-05 08:21:00,57.9,54.3,29.95,NNW,343,0.0,4.0,88,0.00,,,0.23,meteohub,2013-09-05 12:21:00,
2013-09-05 08:26:00,57.7,54.1,29.96,North,355,5.0,5.0,88,0.00,,,0.23,meteohub,2013-09-05 12:26:00,
2013-09-05 08:31:00,57.9,54.7,29.95,NNW,333,4.0,7.0,89,0.00,,,0.23,meteohub,2013-09-05 12:31:00,
2013-09-05 08:36:00,57.9,54.7,29.95,NNW,341,5.0,7.0,89,0.00,,,0.23,meteohub,2013-09-05 12:36:00,
2013-09-05 08:41:00,57.9,54.7,29.95,NNW,336,2.0,7.0,89,0.00,,,0.23,meteohub,2013-09-05 12:41:00,
2013-09-05 08:46:00,57.6,54.3,29.96,NNW,338,4.0,5.0,89,0.00,,,0.23,meteohub,2013-09-05 12:46:00,
2013-09-05 08:51:00,57.4,54.1,29.96,NNW,337,4.0,5.0,89,0.00,,,0.23,meteohub,2013-09-05 12:51:00,
2013-09-05 08:56:00,57.4,53.8,29.96,North,351,3.0,5.0,88,0.00,,,0.23,meteohub,2013-09-05 12:56:00,
2013-09-05 09:01:00,57.0,52.5,29.96,NNW,333,3.0,8.0,85,0.00,,,0.23,meteohub,2013-09-05 13:01:00,
2013-09-05 09:06:00,56.8,52.3,29.96,NNW,327,5.0,9.0,85,0.00,,,0.23,meteohub,2013-09-05 13:06:00,
2013-09-05 09:11:00,56.8,51.8,29.96,NNW,338,6.0,9.0,83,0.00,,,0.23,meteohub,2013-09-05 13:11:00,
2013-09-05 09:16:00,56.8,52.0,29.96,North,353,3.0,9.0,84,0.00,,,0.23,meteohub,2013-09-05 13:16:00,
2013-09-05 09:21:00,56.8,52.0,29.96,NW,316,7.0,8.0,84,0.00,,,0.23,meteohub,2013-09-05 13:21:00,
2013-09-05 09:26:00,56.8,51.4,29.96,NNW,327,4.0,8.0,82,0.00,,,0.23,meteohub,2013-09-05 13:26:00,
2013-09-05 09:31:00,56.8,51.1,29.96,NNW,336,3.0,8.0,81,0.00,,,0.23,meteohub,2013-09-05 13:31:00,
2013-09-05 09:36:00,56.8,51.4,29.96,NNW,345,3.0,7.0,82,0.00,,,0.23,meteohub,2013-09-05 13:36:00,
2013-09-05 09:41:00,56.8,50.4,29.96,NNW,336,3.0,7.0,79,0.00,,,0.23,meteohub,2013-09-05 13:41:00,
2013-09-05 09:46:00,57.2,50.7,29.96,NNW,330,4.0,7.0,79,0.00,,,0.23,meteohub,2013-09-05 13:46:00,
2013-09-05 09:51:00,57.6,51.4,29.96,NNW,342,3.0,8.0,80,0.00,,,0.23,meteohub,2013-09-05 13:51:00,
2013-09-05 09:56:00,57.7,51.3,29.96,NNW,342,1.0,8.0,79,0.00,,,0.23,meteohub,2013-09-05 13:56:00,
2013-09-05 10:01:00,57.9,50.0,29.96,NNW,335,6.0,8.0,75,0.00,,,0.23,meteohub,2013-09-05 14:01:00,
2013-09-05 10:06:00,58.3,50.4,29.96,NNW,328,4.0,8.0,75,0.00,,,0.23,meteohub,2013-09-05 14:06:00,
2013-09-05 10:11:00,58.5,49.8,29.97,NNW,337,4.0,8.0,73,0.00,,,0.23,meteohub,2013-09-05 14:11:00,
2013-09-05 10:16:00,58.6,48.9,29.97,NW,319,5.0,8.0,70,0.00,,,0.23,meteohub,2013-09-05 14:16:00,
2013-09-05 10:21:00,59.0,48.9,29.97,NW,318,4.0,8.0,69,0.00,,,0.23,meteohub,2013-09-05 14:21:00,
2013-09-05 10:26:00,59.2,50.2,29.97,North,351,6.0,8.0,72,0.00,,,0.23,meteohub,2013-09-05 14:26:00,
2013-09-05 10:31:00,59.5,49.8,29.97,NNW,343,3.0,8.0,70,0.00,,,0.23,meteohub,2013-09-05 14:31:00,
2013-09-05 10:36:00,59.5,48.6,29.97,NW,326,5.0,8.0,67,0.00,,,0.23,meteohub,2013-09-05 14:36:00,
2013-09-05 10:41:00,59.7,48.7,29.97,WNW,296,0.0,7.0,67,0.00,,,0.23,meteohub,2013-09-05 14:41:00,
2013-09-05 10:46:00,59.9,48.0,29.97,NW,315,4.0,8.0,65,0.00,,,0.23,meteohub,2013-09-05 14:46:00,
2013-09-05 10:51:00,59.9,47.7,29.97,NNW,339,4.0,8.0,64,0.00,,,0.23,meteohub,2013-09-05 14:51:00,
2013-09-05 10:56:00,60.1,47.8,29.97,WNW,303,6.0,8.0,64,0.00,,,0.23,meteohub,2013-09-05 14:56:00,
2013-09-05 11:01:00,60.3,48.4,29.98,NW,318,4.0,9.0,65,0.00,,,0.23,meteohub,2013-09-05 15:01:00,
2013-09-05 11:06:00,60.1,49.8,29.97,North,353,2.0,9.0,69,0.00,,,0.23,meteohub,2013-09-05 15:06:00,
2013-09-05 11:11:00,60.3,48.9,29.97,NNW,329,3.0,9.0,66,0.00,,,0.23,meteohub,2013-09-05 15:11:00,
2013-09-05 11:16:00,60.4,49.8,29.97,NNW,343,0.0,11.0,68,0.00,,,0.23,meteohub,2013-09-05 15:16:00,
2013-09-05 11:21:00,60.4,49.1,29.97,NNW,335,2.0,11.0,66,0.00,,,0.23,meteohub,2013-09-05 15:21:00,
2013-09-05 11:26:00,60.4,50.5,29.98,NW,315,3.0,11.0,70,0.00,,,0.23,meteohub,2013-09-05 15:26:00,
2013-09-05 11:31:00,60.3,50.4,29.98,NW,320,6.0,8.0,70,0.00,,,0.23,meteohub,2013-09-05 15:31:00,
2013-09-05 11:36:00,60.4,49.8,29.97,NNW,336,0.0,8.0,68,0.00,,,0.23,meteohub,2013-09-05 15:36:00,
2013-09-05 11:41:00,60.6,49.6,29.97,NNW,345,1.0,8.0,67,0.00,,,0.23,meteohub,2013-09-05 15:41:00,
2013-09-05 11:46:00,61.0,49.5,29.97,North,357,5.0,8.0,66,0.00,,,0.23,meteohub,2013-09-05 15:46:00,
2013-09-05 11:51:00,61.3,48.2,29.97,NW,316,5.0,8.0,62,0.00,,,0.23,meteohub,2013-09-05 15:51:00,
2013-09-05 11:56:00,61.3,47.3,29.97,NW,320,10.0,12.0,60,0.00,,,0.23,meteohub,2013-09-05 15:56:00,
2013-09-05 12:01:00,61.9,48.7,29.97,NNW,338,1.0,12.0,62,0.00,,,0.23,meteohub,2013-09-05 16:01:00,
2013-09-05 12:06:00,62.1,47.1,29.97,NW,322,4.0,12.0,58,0.00,,,0.23,meteohub,2013-09-05 16:06:00,
2013-09-05 12:11:00,61.9,46.9,29.97,NW,320,3.0,11.0,58,0.00,,,0.23,meteohub,2013-09-05 16:11:00,
2013-09-05 12:16:00,62.2,46.4,29.97,NNW,346,4.0,11.0,56,0.00,,,0.23,meteohub,2013-09-05 16:16:00,
2013-09-05 12:21:00,62.6,44.8,29.97,NNW,341,12.0,12.0,52,0.00,,,0.23,meteohub,2013-09-05 16:21:00,
2013-09-05 12:26:00,62.6,44.8,29.97,NNW,347,4.0,13.0,52,0.00,,,0.23,meteohub,2013-09-05 16:26:00,
2013-09-05 12:31:00,62.8,44.4,29.97,NNW,332,3.0,13.0,51,0.00,,,0.23,meteohub,2013-09-05 16:31:00,
2013-09-05 12:36:00,63.1,46.2,29.98,NNE,32,5.0,13.0,54,0.00,,,0.23,meteohub,2013-09-05 16:36:00,
2013-09-05 12:41:00,63.1,44.8,29.97,NNW,336,2.0,12.0,51,0.00,,,0.23,meteohub,2013-09-05 16:41:00,
2013-09-05 12:46:00,63.1,46.8,29.98,NW,308,11.0,12.0,55,0.00,,,0.23,meteohub,2013-09-05 16:46:00,
2013-09-05 12:51:00,63.0,46.9,29.98,NNW,345,8.0,14.0,56,0.00,,,0.23,meteohub,2013-09-05 16:51:00,
2013-09-05 12:56:00,63.1,45.7,29.98,NW,325,11.0,14.0,53,0.00,,,0.23,meteohub,2013-09-05 16:56:00,
2013-09-05 13:01:00,63.0,43.5,29.98,NW,306,5.0,14.0,49,0.00,,,0.23,meteohub,2013-09-05 17:01:00,
2013-09-05 13:06:00,63.1,44.2,29.98,WSW,246,2.0,14.0,50,0.00,,,0.23,meteohub,2013-09-05 17:06:00,
2013-09-05 13:11:00,62.8,42.8,29.98,North,5,3.0,14.0,48,0.00,,,0.23,meteohub,2013-09-05 17:11:00,
2013-09-05 13:16:00,63.0,45.1,29.98,NW,317,1.0,11.0,52,0.00,,,0.23,meteohub,2013-09-05 17:16:00,
2013-09-05 13:21:00,63.3,44.4,29.98,WNW,303,2.0,10.0,50,0.00,,,0.23,meteohub,2013-09-05 17:21:00,
2013-09-05 13:26:00,63.3,41.5,29.98,NW,304,5.0,14.0,45,0.00,,,0.23,meteohub,2013-09-05 17:26:00,
2013-09-05 13:31:00,63.1,42.1,29.99,NW,304,7.0,14.0,46,0.00,,,0.23,meteohub,2013-09-05 17:31:00,
2013-09-05 13:36:00,63.0,40.6,29.99,WNW,293,8.0,14.0,44,0.00,,,0.23,meteohub,2013-09-05 17:36:00,
2013-09-05 13:41:00,63.0,41.9,29.99,WNW,301,5.0,19.0,46,0.00,,,0.23,meteohub,2013-09-05 17:41:00,
2013-09-05 13:46:00,63.1,43.2,29.99,WNW,301,2.0,19.0,48,0.00,,,0.23,meteohub,2013-09-05 17:46:00,
2013-09-05 13:51:00,63.0,44.6,29.99,SW,224,2.0,18.0,51,0.00,,,0.23,meteohub,2013-09-05 17:51:00,
2013-09-05 13:56:00,63.0,41.4,29.99,NW,309,6.0,16.0,45,0.00,,,0.23,meteohub,2013-09-05 17:56:00,
2013-09-05 14:01:00,63.0,42.4,29.99,NNW,331,10.0,16.0,47,0.00,,,0.23,meteohub,2013-09-05 18:01:00,
2013-09-05 14:06:00,63.1,42.1,29.99,NW,308,12.0,13.0,46,0.00,,,0.23,meteohub,2013-09-05 18:06:00,
2013-09-05 14:11:00,63.0,44.1,29.99,NNE,22,3.0,16.0,50,0.00,,,0.23,meteohub,2013-09-05 18:11:00,
2013-09-05 14:16:00,63.1,44.2,29.99,NNW,332,6.0,16.0,50,0.00,,,0.23,meteohub,2013-09-05 18:16:00,
2013-09-05 14:21:00,63.1,42.1,29.99,NNW,344,6.0,16.0,46,0.00,,,0.23,meteohub,2013-09-05 18:21:00,
2013-09-05 14:26:00,63.1,44.2,29.99,NW,308,6.0,14.0,50,0.00,,,0.23,meteohub,2013-09-05 18:26:00,
2013-09-05 14:31:00,63.1,43.7,29.99,NNE,12,8.0,14.0,49,0.00,,,0.23,meteohub,2013-09-05 18:31:00,
2013-09-05 14:36:00,63.3,42.8,29.99,NNW,333,5.0,14.0,47,0.00,,,0.23,meteohub,2013-09-05 18:36:00,
2013-09-05 14:41:00,63.3,42.8,30.00,WSW,249,11.0,15.0,47,0.00,,,0.23,meteohub,2013-09-05 18:41:00,
2013-09-05 14:46:00,63.1,42.6,30.00,NNW,337,3.0,17.0,47,0.00,,,0.23,meteohub,2013-09-05 18:46:00,
2013-09-05 14:51:00,63.3,44.4,29.99,NW,316,4.0,17.0,50,0.00,,,0.23,meteohub,2013-09-05 18:51:00,
2013-09-05 14:56:00,63.7,43.2,29.99,North,8,7.0,17.0,47,0.00,,,0.23,meteohub,2013-09-05 18:56:00,
2013-09-05 15:01:00,63.1,42.1,30.00,WNW,301,9.0,13.0,46,0.00,,,0.23,meteohub,2013-09-05 19:01:00,
2013-09-05 15:06:00,63.0,42.4,30.00,NW,305,10.0,15.0,47,0.00,,,0.23,meteohub,2013-09-05 19:06:00,
2013-09-05 15:11:00,63.0,41.4,30.00,NNW,331,8.0,15.0,45,0.00,,,0.23,meteohub,2013-09-05 19:11:00,
2013-09-05 15:16:00,63.0,42.4,29.99,NNW,332,6.0,15.0,47,0.00,,,0.23,meteohub,2013-09-05 19:16:00,
2013-09-05 15:21:00,63.1,43.7,30.00,NNW,348,1.0,11.0,49,0.00,,,0.23,meteohub,2013-09-05 19:21:00,
2013-09-05 15:26:00,63.7,45.7,30.00,NNW,347,4.0,9.0,52,0.00,,,0.23,meteohub,2013-09-05 19:26:00,
2013-09-05 15:31:00,63.0,44.6,30.00,NNW,347,8.0,11.0,51,0.00,,,0.23,meteohub,2013-09-05 19:31:00,
2013-09-05 15:36:00,62.8,45.3,30.00,WNW,303,5.0,13.0,53,0.00,,,0.23,meteohub,2013-09-05 19:36:00,
2013-09-05 15:41:00,62.8,44.4,30.00,NW,326,4.0,13.0,51,0.00,,,0.23,meteohub,2013-09-05 19:41:00,
2013-09-05 15:46:00,62.2,43.9,30.01,West,265,6.0,11.0,51,0.00,,,0.23,meteohub,2013-09-05 19:46:00,
2013-09-05 15:51:00,61.9,44.6,30.01,NNW,336,3.0,11.0,53,0.00,,,0.23,meteohub,2013-09-05 19:51:00,
2013-09-05 15:56:00,61.5,44.2,30.01,NNW,345,3.0,11.0,53,0.00,,,0.23,meteohub,2013-09-05 19:56:00,
2013-09-05 16:01:00,61.9,44.6,30.00,NNW,329,3.0,11.0,53,0.00,,,0.23,meteohub,2013-09-05 20:01:00,
2013-09-05 16:06:00,62.1,43.2,30.00,NNW,343,3.0,10.0,50,0.00,,,0.23,meteohub,2013-09-05 20:06:00,
2013-09-05 16:11:00,62.8,45.9,30.00,NNW,340,6.0,10.0,54,0.00,,,0.23,meteohub,2013-09-05 20:11:00,
2013-09-05 16:16:00,63.0,45.5,30.01,NW,315,5.0,11.0,53,0.00,,,0.23,meteohub,2013-09-05 20:16:00,
2013-09-05 16:21:00,62.6,46.2,30.01,NNW,337,4.0,11.0,55,0.00,,,0.23,meteohub,2013-09-05 20:21:00,
2013-09-05 16:26:00,62.2,43.9,30.01,NNW,332,0.0,11.0,51,0.00,,,0.23,meteohub,2013-09-05 20:26:00,
2013-09-05 16:31:00,62.1,45.7,30.01,NW,306,2.0,10.0,55,0.00,,,0.23,meteohub,2013-09-05 20:31:00,
2013-09-05 16:36:00,61.9,45.1,30.01,NNW,348,1.0,9.0,54,0.00,,,0.23,meteohub,2013-09-05 20:36:00,
2013-09-05 16:41:00,62.1,46.2,30.01,NNW,343,5.0,8.0,56,0.00,,,0.23,meteohub,2013-09-05 20:41:00,
2013-09-05 16:46:00,62.4,46.0,30.01,NNW,328,5.0,8.0,55,0.00,,,0.23,meteohub,2013-09-05 20:46:00,
2013-09-05 16:51:00,62.8,45.9,30.02,NW,312,5.0,9.0,54,0.00,,,0.23,meteohub,2013-09-05 20:51:00,
2013-09-05 16:56:00,62.8,46.9,30.02,NW,311,5.0,11.0,56,0.00,,,0.23,meteohub,2013-09-05 20:56:00,
2013-09-05 17:01:00,62.6,45.1,30.02,NW,305,3.0,11.0,53,0.00,,,0.23,meteohub,2013-09-05 21:01:00,
2013-09-05 17:06:00,62.6,45.7,30.02,WNW,301,5.0,11.0,54,0.00,,,0.23,meteohub,2013-09-05 21:06:00,
2013-09-05 17:11:00,62.4,45.5,30.02,NNW,341,2.0,10.0,54,0.00,,,0.23,meteohub,2013-09-05 21:11:00,
2013-09-05 17:16:00,62.4,44.6,30.02,North,353,7.0,8.0,52,0.00,,,0.23,meteohub,2013-09-05 21:16:00,
2013-09-05 17:21:00,62.2,46.4,30.02,WNW,301,3.0,10.0,56,0.00,,,0.23,meteohub,2013-09-05 21:21:00,
2013-09-05 17:26:00,62.2,43.9,30.02,NNW,328,4.0,10.0,51,0.00,,,0.23,meteohub,2013-09-05 21:26:00,
2013-09-05 17:31:00,62.2,45.3,30.02,NNW,333,2.0,10.0,54,0.00,,,0.23,meteohub,2013-09-05 21:31:00,
2013-09-05 17:36:00,62.2,43.9,30.03,NNW,342,3.0,8.0,51,0.00,,,0.23,meteohub,2013-09-05 21:36:00,
2013-09-05 17:41:00,62.4,45.1,30.03,WNW,301,1.0,8.0,53,0.00,,,0.23,meteohub,2013-09-05 21:41:00,
2013-09-05 17:46:00,62.2,43.9,30.03,NW,323,6.0,8.0,51,0.00,,,0.23,meteohub,2013-09-05 21:46:00,
2013-09-05 17:51:00,62.1,45.1,30.03,NNW,330,4.0,8.0,54,0.00,,,0.23,meteohub,2013-09-05 21:51:00,
2013-09-05 17:56:00,61.7,45.3,30.03,NW,320,4.0,8.0,55,0.00,,,0.23,meteohub,2013-09-05 21:56:00,
2013-09-05 18:01:00,61.3,44.1,30.03,NW,326,6.0,8.0,53,0.00,,,0.23,meteohub,2013-09-05 22:01:00,
2013-09-05 18:06:00,60.8,44.1,30.03,NW,309,4.0,8.0,54,0.00,,,0.23,meteohub,2013-09-05 22:06:00,
2013-09-05 18:11:00,60.4,44.6,30.04,NW,315,4.0,8.0,56,0.00,,,0.23,meteohub,2013-09-05 22:11:00,
2013-09-05 18:16:00,60.3,43.5,30.04,NNW,341,3.0,11.0,54,0.00,,,0.23,meteohub,2013-09-05 22:16:00,
2013-09-05 18:21:00,59.9,43.7,30.04,NNW,338,4.0,11.0,55,0.00,,,0.23,meteohub,2013-09-05 22:21:00,
2013-09-05 18:26:00,59.7,44.4,30.04,NNW,347,4.0,11.0,57,0.00,,,0.23,meteohub,2013-09-05 22:26:00,
2013-09-05 18:31:00,59.7,43.5,30.04,NNW,341,3.0,8.0,55,0.00,,,0.23,meteohub,2013-09-05 22:31:00,
2013-09-05 18:36:00,59.4,42.3,30.04,WNW,289,6.0,8.0,53,0.00,,,0.23,meteohub,2013-09-05 22:36:00,
2013-09-05 18:41:00,59.2,44.8,30.05,NNW,334,2.0,8.0,59,0.00,,,0.23,meteohub,2013-09-05 22:41:00,
2013-09-05 18:46:00,58.8,45.9,30.05,NNW,334,1.0,8.0,62,0.00,,,0.23,meteohub,2013-09-05 22:46:00,
2013-09-05 18:51:00,58.3,45.7,30.05,NNW,336,0.0,8.0,63,0.00,,,0.23,meteohub,2013-09-05 22:51:00,
2013-09-05 18:56:00,57.7,48.0,30.05,NNW,336,2.0,3.0,70,0.00,,,0.23,meteohub,2013-09-05 22:56:00,
2013-09-05 19:01:00,57.0,49.1,30.05,NNW,340,0.0,4.0,75,0.00,,,0.23,meteohub,2013-09-05 23:01:00,
2013-09-05 19:06:00,56.5,47.5,30.05,NNW,340,0.0,4.0,72,0.00,,,0.23,meteohub,2013-09-05 23:06:00,
2013-09-05 19:11:00,55.9,47.1,30.05,NNW,340,0.0,2.0,72,0.00,,,0.23,meteohub,2013-09-05 23:11:00,
2013-09-05 19:16:00,55.8,46.6,30.06,NNW,340,0.0,2.0,71,0.00,,,0.23,meteohub,2013-09-05 23:16:00,
2013-09-05 19:21:00,55.2,46.0,30.06,NNW,340,0.0,2.0,71,0.00,,,0.23,meteohub,2013-09-05 23:21:00,
2013-09-05 19:26:00,55.0,46.2,30.06,NNW,340,0.0,1.0,72,0.00,,,0.23,meteohub,2013-09-05 23:26:00,
2013-09-05 19:31:00,54.9,46.4,30.06,NNW,340,0.0,0.0,73,0.00,,,0.23,meteohub,2013-09-05 23:31:00,
2013-09-05 19:36:00,54.5,46.4,30.06,NNW,340,0.0,1.0,74,0.00,,,0.23,meteohub,2013-09-05 23:36:00,
2013-09-05 19:41:00,54.3,46.2,30.07,NNW,340,0.0,1.0,74,0.00,,,0.23,meteohub,2013-09-05 23:41:00,
2013-09-05 19:46:00,54.0,45.9,30.07,NNW,340,0.0,0.0,74,0.00,,,0.23,meteohub,2013-09-05 23:46:00,
2013-09-05 19:51:00,53.8,46.4,30.07,NNW,340,0.0,0.0,76,0.00,,,0.23,meteohub,2013-09-05 23:51:00,
2013-09-05 19:56:00,53.6,46.6,30.07,NNW,340,0.0,0.0,77,0.00,,,0.23,meteohub,2013-09-05 23:56:00,
2013-09-05 20:01:00,53.4,46.8,30.08,NNW,340,0.0,0.0,78,0.00,,,0.23,meteohub,2013-09-06 00:01:00,
2013-09-05 20:06:00,53.1,46.4,30.08,NNW,340,0.0,0.0,78,0.00,,,0.23,meteohub,2013-09-06 00:06:00,
2013-09-05 20:11:00,52.9,46.9,30.08,NNW,340,0.0,0.0,80,0.00,,,0.23,meteohub,2013-09-06 00:11:00,
2013-09-05 20:16:00,52.5,46.6,30.09,NNW,340,0.0,0.0,80,0.00,,,0.23,meteohub,2013-09-06 00:16:00,
2013-09-05 20:21:00,52.3,46.9,30.09,NNW,340,0.0,0.0,82,0.00,,,0.23,meteohub,2013-09-06 00:21:00,
2013-09-05 20:26:00,52.2,46.6,30.09,NNW,340,0.0,1.0,81,0.00,,,0.23,meteohub,2013-09-06 00:26:00,
2013-09-05 20:31:00,52.0,46.6,30.10,NNW,340,0.0,1.0,82,0.00,,,0.23,meteohub,2013-09-06 00:31:00,
2013-09-05 20:36:00,51.6,46.9,30.10,NNW,340,0.0,1.0,84,0.00,,,0.23,meteohub,2013-09-06 00:36:00,
2013-09-05 20:41:00,51.4,46.4,30.10,NNW,340,0.0,1.0,83,0.00,,,0.23,meteohub,2013-09-06 00:41:00,
2013-09-05 20:46:00,51.3,46.2,30.10,NNW,340,0.0,1.0,83,0.00,,,0.23,meteohub,2013-09-06 00:46:00,
2013-09-05 20:51:00,51.1,46.4,30.11,NNW,340,1.0,1.0,84,0.00,,,0.23,meteohub,2013-09-06 00:51:00,
2013-09-05 20:56:00,50.7,46.4,30.11,NNW,340,0.0,1.0,85,0.00,,,0.23,meteohub,2013-09-06 00:56:00,
2013-09-05 21:01:00,50.7,46.8,30.11,NNW,340,0.0,1.0,86,0.00,,,0.23,meteohub,2013-09-06 01:01:00,
2013-09-05 21:06:00,50.5,46.6,30.11,NNW,340,0.0,1.0,86,0.00,,,0.23,meteohub,2013-09-06 01:06:00,
2013-09-05 21:11:00,50.5,46.8,30.12,NNW,340,0.0,0.0,87,0.00,,,0.23,meteohub,2013-09-06 01:11:00,
2013-09-05 21:16:00,50.4,46.4,30.12,NNW,340,0.0,1.0,86,0.00,,,0.23,meteohub,2013-09-06 01:16:00,
2013-09-05 21:21:00,49.8,46.0,30.12,NNW,340,0.0,2.0,87,0.00,,,0.23,meteohub,2013-09-06 01:21:00,
2013-09-05 21:26:00,49.6,45.9,30.12,NNW,340,0.0,2.0,87,0.00,,,0.23,meteohub,2013-09-06 01:26:00,
2013-09-05 21:31:00,49.5,45.7,30.12,NNW,340,0.0,2.0,87,0.00,,,0.23,meteohub,2013-09-06 01:31:00,
2013-09-05 21:36:00,49.3,46.2,30.12,NNW,340,0.0,1.0,89,0.00,,,0.23,meteohub,2013-09-06 01:36:00,
2013-09-05 21:41:00,49.1,46.2,30.13,NNW,340,0.0,2.0,90,0.00,,,0.23,meteohub,2013-09-06 01:41:00,
2013-09-05 21:46:00,48.9,46.0,30.13,NNW,340,0.0,2.0,90,0.00,,,0.23,meteohub,2013-09-06 01:46:00,
2013-09-05 21:51:00,48.7,45.9,30.13,NNW,341,0.0,2.0,90,0.00,,,0.23,meteohub,2013-09-06 01:51:00,
2013-09-05 21:56:00,48.6,45.7,30.14,NNW,341,0.0,1.0,90,0.00,,,0.23,meteohub,2013-09-06 01:56:00,
2013-09-05 22:01:00,48.6,46.0,30.14,NNW,340,0.0,1.0,91,0.00,,,0.23,meteohub,2013-09-06 02:01:00,
2013-09-05 22:06:00,48.4,45.9,30.14,NNW,340,0.0,1.0,91,0.00,,,0.23,meteohub,2013-09-06 02:06:00,
2013-09-05 22:11:00,48.4,45.9,30.14,NNW,340,0.0,0.0,91,0.00,,,0.23,meteohub,2013-09-06 02:11:00,
2013-09-05 22:16:00,48.4,45.9,30.14,NNW,340,0.0,1.0,91,0.00,,,0.23,meteohub,2013-09-06 02:16:00,
2013-09-05 22:21:00,48.0,45.1,30.14,NNW,341,0.0,1.0,90,0.00,,,0.23,meteohub,2013-09-06 02:21:00,
2013-09-05 22:26:00,48.0,45.5,30.14,NNW,341,0.0,1.0,91,0.00,,,0.23,meteohub,2013-09-06 02:26:00,
2013-09-05 22:31:00,48.0,45.9,30.14,NNW,341,0.0,0.0,92,0.00,,,0.23,meteohub,2013-09-06 02:31:00,
2013-09-05 22:36:00,47.8,45.7,30.14,NNW,341,0.0,0.0,92,0.00,,,0.23,meteohub,2013-09-06 02:36:00,
2013-09-05 22:41:00,47.7,45.1,30.14,NNW,340,0.0,2.0,91,0.00,,,0.23,meteohub,2013-09-06 02:41:00,
2013-09-05 22:46:00,47.5,45.0,30.14,NNW,340,0.0,2.0,91,0.00,,,0.23,meteohub,2013-09-06 02:46:00,
2013-09-05 22:51:00,47.1,44.6,30.14,NNW,340,0.0,2.0,91,0.00,,,0.23,meteohub,2013-09-06 02:51:00,
2013-09-05 22:56:00,46.8,44.1,30.14,NNW,341,0.0,2.0,90,0.00,,,0.23,meteohub,2013-09-06 02:56:00,
2013-09-05 23:01:00,46.6,43.9,30.14,NNW,341,0.0,2.0,90,0.00,,,0.23,meteohub,2013-09-06 03:01:00,
2013-09-05 23:06:00,46.6,44.6,30.15,NNW,340,2.0,2.0,93,0.00,,,0.23,meteohub,2013-09-06 03:06:00,
2013-09-05 23:11:00,46.6,44.4,30.15,NNW,340,1.0,3.0,92,0.00,,,0.23,meteohub,2013-09-06 03:11:00,
2013-09-05 23:16:00,46.2,44.2,30.15,NNW,340,0.0,3.0,93,0.00,,,0.23,meteohub,2013-09-06 03:16:00,
2013-09-05 23:21:00,46.0,43.9,30.15,NNW,340,0.0,3.0,92,0.00,,,0.23,meteohub,2013-09-06 03:21:00,
2013-09-05 23:26:00,45.9,43.3,30.15,NNW,340,0.0,3.0,91,0.00,,,0.23,meteohub,2013-09-06 03:26:00,
2013-09-05 23:31:00,45.7,43.5,30.15,NNW,340,0.0,1.0,92,0.00,,,0.23,meteohub,2013-09-06 03:31:00,
2013-09-05 23:36:00,45.7,43.5,30.15,NNW,340,0.0,1.0,92,0.00,,,0.23,meteohub,2013-09-06 03:36:00,
2013-09-05 23:41:00,45.7,43.5,30.16,NNW,340,0.0,1.0,92,0.00,,,0.23,meteohub,2013-09-06 03:41:00,
2013-09-05 23:46:00,45.5,43.5,30.16,NNW,340,0.0,1.0,93,0.00,,,0.23,meteohub,2013-09-06 03:46:00,
2013-09-05 23:51:00,45.5,43.3,30.15,NNW,340,0.0,1.0,92,0.00,,,0.23,meteohub,2013-09-06 03:51:00,
2013-09-05 23:56:00,45.5,43.5,30.16,NNW,340,0.0,1.0,93,0.00,,,0.23,meteohub,2013-09-06 03:56:00,